STARLINK M

Last updated on June 19, 2020, 12:02 a.m. UTC

1 45741U 20038M   20170.66667824  .01624176  13454-2  30314-2 0  9998
2 45741  53.0007 272.2771 0098637  69.8668  15.6329 15.92058497  2123

Satellite is not in orbit.